This is the latest recevied weather packets stored in our database for station/object E20ZNR-1. If no packets are shown the sender has not sent any weather packets the latest 10 day(s).
| Time | Temp. | Humidity | Pressure | Rain* | Wind** | Luminosity | Snow |
|---|---|---|---|---|---|---|---|
| 1777625343 | 31.67° C | 69% | 1003 hPa | - | - | 0 W/m² | - |
| 1777624417 | 31.11° C | 73% | 1004 hPa | - | - | 0 W/m² | - |
| 1777623492 | 32.22° C | 60% | 1004 hPa | - | - | 0 W/m² | - |
| 1777622567 | 35.56° C | 59% | 1003 hPa | - | - | 0 W/m² | - |
| 1777621642 | 36.67° C | 55% | 1003 hPa | - | - | 0 W/m² | - |
| 1777620717 | 39.44° C | 49% | 1003 hPa | - | - | 0 W/m² | - |
| 1777619791 | 40° C | 50% | 1003 hPa | - | - | 0 W/m² | - |
| 1777618865 | 37.22° C | 56% | 1004 hPa | - | - | 0 W/m² | - |
| 1777617940 | 37.22° C | 55% | 1004 hPa | - | - | 0 W/m² | - |
| 1777617014 | 37.78° C | 53% | 1004 hPa | - | - | 0 W/m² | - |
| 1777616089 | 38.33° C | 52% | 1005 hPa | - | - | 0 W/m² | - |
| 1777615163 | 36.67° C | 56% | 1005 hPa | - | - | 0 W/m² | - |
| 1777614238 | 36.67° C | 57% | 1005 hPa | - | - | 0 W/m² | - |
| 1777613313 | 37.22° C | 54% | 1006 hPa | - | - | 0 W/m² | - |
| 1777612388 | 36.67° C | 56% | 1006 hPa | - | - | 0 W/m² | - |
| 1777611463 | 37.78° C | 54% | 1006 hPa | - | - | 0 W/m² | - |
| 1777610538 | 37.78° C | 53% | 1007 hPa | - | - | 0 W/m² | - |
| 1777609597 | 38.33° C | 53% | 1007 hPa | - | - | 0 W/m² | - |
| 1777608641 | 37.22° C | 54% | 1007 hPa | - | - | 0 W/m² | - |
| 1777608025 | 36.67° C | 56% | 1007 hPa | - | - | 0 W/m² | - |
| 1777605842 | 37.78° C | 51% | 1007 hPa | - | - | 0 W/m² | - |
| 1777604917 | 37.22° C | 50% | 1007 hPa | - | - | 0 W/m² | - |
| 1777603978 | 37.78° C | 52% | 1008 hPa | - | - | 0 W/m² | - |
| 1777603052 | 35.56° C | 55% | 1008 hPa | - | - | 0 W/m² | - |
| 1777602940 | 35° C | 56% | 1008 hPa | - | - | 0 W/m² | - |
* Rain since midnight (hover to see other rain measurements)
** Current wind speed in m/s (hover to see current wind gust speed)